Weather History for Mayfld Grav Cnty AP, Mayfield, KY

Change the Weather History Date:

Thursday, December 26, 2013

  Actual Average (KPAH) Record (KPAH)
Temperature  
Mean Temperature 34 °F 35 °F  
Max Temperature 44 °F 44 °F 68 °F (2008)
Min Temperature 24 °F 27 °F 4 °F (1983)
Degree Days  
Heating Degree Days 31 30  
Month to date heating degree days 704  
Since 1 July heating degree days 1481  
Cooling Degree Days 0 0  
Month to date cooling degree days 0  
Year to date cooling degree days 1542  
Moisture  
Dew Point 28 °F    
Average Humidity 80    
Maximum Humidity 100    
Minimum Humidity 53    
Precipitation  
Precipitation 0.00 in 0.15 in 1.09 in (1973)
Month to date precipitation 3.93  
Year to date precipitation 48.42  
Snow  
Snow 0.00 in 0.10 in T in (2011)
Month to date snowfall 1.8  
Since 1 July snowfall 1.9  
Snow Depth -    
Sea Level Pressure  
Sea Level Pressure 30.39 in    
Wind  
Wind Speed 4 mph (WSW)    
Max Wind Speed 12 mph    
Max Gust Speed -    
Visibility 9 miles    
Events      
T = Trace of Precipitation, MM = Missing Value Source: NWS Daily Summary

Daily Weather History Graph

Daily Weather History Graph

Search for Another Location

Airport:

Trip Planner

Search our weather history database for the weather conditions in past years. The results will help you decide how hot, cold, wet, or windy it might be!

Date:

Astronomy

Dec. 26, 2013 Rise Set
Actual Time 7:05 AM CST 4:44 PM CST
Civil Twilight 6:36 AM CST 5:13 PM CST
Nautical Twilight 6:04 AM CST 5:46 PM CST
Astronomical Twilight 5:32 AM CST 6:17 PM CST
Moon 12:40 AM CST (12/26) 12:14 PM CST (12/26)
Length of Visible Light 10h 37m
Length of Day
9h 39m
Last Quarter, 38% of the Moon is Illuminated
Dec 26
Last Quarter
Jan 1
New
Jan 7
First Quarter
Jan 15
Full
Jan 23
Last Quarter

Hourly Weather History & Observations

Time (CST) Temp. Windchill Dew Point Humidity Pressure Visibility Wind Dir Wind Speed Gust Speed Precip Events Conditions
12:15 AM 33.8 °F 27.0 °F 30.2 °F 87% 30.32 in 10.0 mi West 8.1 mph - N/A   Clear
12:35 AM 33.8 °F 25.8 °F 32.0 °F 93% 30.32 in 10.0 mi West 10.4 mph - N/A   Clear
12:55 AM 33.8 °F 26.4 °F 32.0 °F 93% 30.33 in 10.0 mi NW 9.2 mph - N/A   Clear
1:15 AM 32.0 °F 23.0 °F 30.2 °F 93% 30.34 in 10.0 mi NNW 11.5 mph - N/A   Clear
1:35 AM 32.0 °F 24.8 °F 30.2 °F 93% 30.34 in 10.0 mi NNW 8.1 mph - N/A   Clear
1:55 AM 32.0 °F 26.4 °F 30.2 °F 93% 30.35 in 10.0 mi NNW 5.8 mph - N/A   Clear
2:15 AM 32.0 °F 27.5 °F 30.2 °F 93% 30.35 in 10.0 mi NNW 4.6 mph - N/A   Clear
2:35 AM 32.0 °F 27.5 °F 28.4 °F 87% 30.36 in 10.0 mi NNW 4.6 mph - N/A   Scattered Clouds
2:55 AM 30.2 °F - 28.4 °F 93% 30.36 in 10.0 mi Calm Calm - N/A   Scattered Clouds
3:15 AM 30.2 °F 26.7 °F 28.4 °F 93% 30.36 in 10.0 mi NW 3.5 mph - N/A   Clear
3:35 AM 28.4 °F - 28.4 °F 100% 30.36 in 7.0 mi Calm Calm - N/A   Clear
3:55 AM 28.4 °F 24.6 °F 28.4 °F 100% 30.36 in 7.0 mi West 3.5 mph - N/A   Clear
4:15 AM 28.4 °F 24.6 °F 26.6 °F 93% 30.37 in 7.0 mi West 3.5 mph - N/A   Clear
4:35 AM 28.4 °F 24.6 °F 28.4 °F 100% 30.37 in 5.0 mi WSW 3.5 mph - N/A   Clear
4:55 AM 26.6 °F 22.6 °F 26.6 °F 100% 30.37 in 5.0 mi WSW 3.5 mph - N/A   Clear
5:15 AM 28.4 °F 24.6 °F 26.6 °F 93% 30.38 in 5.0 mi West 3.5 mph - N/A   Clear
5:35 AM 28.4 °F 24.6 °F 26.6 °F 93% 30.38 in 5.0 mi West 3.5 mph - N/A   Clear
5:55 AM 28.4 °F 24.6 °F 26.6 °F 93% 30.39 in 7.0 mi West 3.5 mph - N/A   Clear
6:15 AM 24.8 °F - 23.0 °F 93% 30.39 in 5.0 mi Calm Calm - N/A   Clear
6:35 AM 24.8 °F - 23.0 °F 93% 30.39 in 5.0 mi Calm Calm - N/A   Clear
6:55 AM 24.8 °F 20.5 °F 24.8 °F 100% 30.40 in 4.0 mi SSW 3.5 mph - N/A   Clear
7:15 AM 24.8 °F 20.5 °F 24.8 °F 100% 30.40 in 4.0 mi SW 3.5 mph - N/A   Clear
7:35 AM 26.6 °F 21.2 °F 26.6 °F 100% 30.41 in 4.0 mi West 4.6 mph - N/A   Clear
7:55 AM 28.4 °F 24.6 °F 28.4 °F 100% 30.41 in 4.0 mi WSW 3.5 mph - N/A   Clear
8:15 AM 30.2 °F 26.7 °F 30.2 °F 100% 30.42 in 4.0 mi WSW 3.5 mph - N/A   Clear
8:35 AM 32.0 °F 28.7 °F 30.2 °F 93% 30.43 in 5.0 mi WNW 3.5 mph - N/A   Clear
8:55 AM 32.0 °F 27.5 °F 30.2 °F 93% 30.44 in 7.0 mi WNW 4.6 mph - N/A   Clear
9:15 AM 33.8 °F 30.8 °F 30.2 °F 87% 30.44 in 10.0 mi WNW 3.5 mph - N/A   Clear
9:35 AM 33.8 °F - 30.2 °F 87% 30.44 in 10.0 mi Calm Calm - N/A   Clear
9:55 AM 35.6 °F 32.8 °F 30.2 °F 81% 30.45 in 10.0 mi NW 3.5 mph - N/A   Clear
10:15 AM 35.6 °F - 30.2 °F 81% 30.45 in 10.0 mi Calm Calm - N/A   Clear
10:35 AM 37.4 °F - 28.4 °F 70% 30.45 in 10.0 mi Calm Calm - N/A   Clear
10:55 AM 37.4 °F - 30.2 °F 75% 30.44 in 10.0 mi Calm Calm - N/A   Clear
11:15 AM 39.2 °F - 28.4 °F 65% 30.44 in 10.0 mi Calm Calm - N/A   Clear
11:35 AM 41.0 °F - 28.4 °F 61% 30.43 in 10.0 mi Calm Calm - N/A   Clear
11:55 AM 41.0 °F - 28.4 °F 61% 30.42 in 10.0 mi Calm Calm - N/A   Clear
12:15 PM 41.0 °F - 28.4 °F 61% 30.41 in 10.0 mi Calm Calm - N/A   Clear
12:35 PM 42.8 °F - 30.2 °F 61% 30.40 in 10.0 mi Calm Calm - N/A   Clear
12:55 PM 42.8 °F - 28.4 °F 57% 30.39 in 10.0 mi Calm Calm - N/A   Clear
1:15 PM 42.8 °F 39.3 °F 26.6 °F 53% 30.39 in 10.0 mi West 5.8 mph - N/A   Clear
1:35 PM 42.8 °F - 26.6 °F 53% 30.39 in 10.0 mi Calm Calm - N/A   Clear
1:55 PM 42.8 °F - 28.4 °F 57% 30.38 in 10.0 mi Calm Calm - N/A   Clear
2:15 PM 42.8 °F 41.1 °F 28.4 °F 57% 30.38 in 10.0 mi West 3.5 mph - N/A   Clear
2:35 PM 44.6 °F - 28.4 °F 53% 30.37 in 10.0 mi Calm Calm - N/A   Clear
2:55 PM 42.8 °F 40.1 °F 28.4 °F 57% 30.38 in 10.0 mi West 4.6 mph - N/A   Clear
3:15 PM 44.6 °F 42.2 °F 28.4 °F 53% 30.38 in 10.0 mi WSW 4.6 mph - N/A   Clear
3:35 PM 42.8 °F 41.1 °F 28.4 °F 57% 30.38 in 10.0 mi West 3.5 mph - N/A   Clear
3:55 PM 42.8 °F 40.1 °F 28.4 °F 57% 30.38 in 10.0 mi SSW 4.6 mph - N/A   Clear
4:15 PM 42.8 °F - 28.4 °F 57% 30.39 in 10.0 mi Calm Calm - N/A   Clear
4:35 PM 42.8 °F - 28.4 °F 57% 30.39 in 10.0 mi Calm Calm - N/A   Clear
4:55 PM 41.0 °F - 28.4 °F 61% 30.39 in 10.0 mi Calm Calm - N/A   Clear
5:15 PM 37.4 °F - 28.4 °F 70% 30.38 in 10.0 mi Calm Calm - N/A   Clear
5:35 PM 35.6 °F - 28.4 °F 75% 30.38 in 10.0 mi Calm Calm - N/A   Clear
5:55 PM 35.6 °F - 28.4 °F 75% 30.38 in 10.0 mi Calm Calm - N/A   Clear
6:15 PM 33.8 °F 30.8 °F 28.4 °F 81% 30.38 in 10.0 mi South 3.5 mph - N/A   Clear
6:35 PM 32.0 °F 27.5 °F 28.4 °F 87% 30.37 in 10.0 mi SSE 4.6 mph - N/A   Clear
6:55 PM 32.0 °F 28.7 °F 28.4 °F 87% 30.37 in 10.0 mi SSE 3.5 mph - N/A   Clear
7:15 PM 32.0 °F 28.7 °F 26.6 °F 80% 30.38 in 10.0 mi SSE 3.5 mph - N/A   Clear
7:35 PM 32.0 °F 27.5 °F 26.6 °F 80% 30.38 in 10.0 mi South 4.6 mph - N/A   Clear
7:55 PM 32.0 °F 28.7 °F 26.6 °F 80% 30.38 in 10.0 mi SSW 3.5 mph - N/A   Clear
8:15 PM 33.8 °F 30.8 °F 26.6 °F 75% 30.38 in 10.0 mi South 3.5 mph - N/A   Clear
8:35 PM 32.0 °F 27.5 °F 26.6 °F 80% 30.38 in 10.0 mi SSW 4.6 mph - N/A   Clear
8:55 PM 30.2 °F 25.4 °F 26.6 °F 86% 30.38 in 10.0 mi SW 4.6 mph - N/A   Clear
9:15 PM 32.0 °F 26.4 °F 26.6 °F 80% 30.38 in 10.0 mi SW 5.8 mph - N/A   Clear
9:35 PM 32.0 °F 25.6 °F 26.6 °F 80% 30.38 in 10.0 mi SSW 6.9 mph - N/A   Clear
9:55 PM 32.0 °F 27.5 °F 26.6 °F 80% 30.40 in 10.0 mi SW 4.6 mph - N/A   Clear
10:15 PM 32.0 °F 27.5 °F 26.6 °F 80% 30.40 in 10.0 mi SW 4.6 mph - N/A   Clear
10:35 PM 32.0 °F 27.5 °F 26.6 °F 80% 30.40 in 10.0 mi SW 4.6 mph - N/A   Clear
10:55 PM 30.2 °F 25.4 °F 26.6 °F 86% 30.40 in 10.0 mi SW 4.6 mph - N/A   Clear
11:15 PM 30.2 °F 25.4 °F 24.8 °F 80% 30.40 in 10.0 mi SW 4.6 mph - N/A   Clear
11:35 PM 30.2 °F 26.7 °F 26.6 °F 86% 30.40 in 10.0 mi SW 3.5 mph - N/A   Clear
11:55 PM 32.0 °F 28.7 °F 26.6 °F 80% 30.41 in 10.0 mi West 3.5 mph - N/A   Clear